Airfield :
LOGIN :

Register | Disclaimer

   EN    FR    IT 

 










Legend :    VFR   Marginal VFR   IFR   Intensive IFR   Very Intensive IFR
Visi :
Ceiling :
>= 8 km
>= 3000ft
5 to 8 km
1000 to 3000 ft
1500m to 5 km
500 to 1000 ft
800 to 1500m
200 to 500 ft
< 800m
< 200 ft
Symbols :   Thunderstorms  Fog  Heavy snow  Heavy precipitations  Wind > 20 kt
SIGMETs :     Misc.  Thunderstorms  Icing  Turbulence  Mountain Waves  Volcanic Ashes







- Airport Elevation : 230 ft


ETHB - Buckeburg Army

CURRENT METAR :
  • 251920Z 18002KT 9999 SCT240 BKN280 29/18 Q1018 BLU+

EXPIRED METARs :
  • 251820Z 15004KT 9999 FEW150 SCT230 BKN280 30/19 Q1018 BLU+
  • 251720Z 16005KT 9999 FEW150 SCT280 BKN340 32/18 Q1018 BLU+

TAF AMD TAF ETHB
Valid from the 25 at 14:00 until the 25 at 23:00 UTC


251435Z 2514/2523 17010KT 9999 NSW SCT300 CANCEL 1500
No reported NOTAMs for that airfield.



MET'MAP, your aeronautical weather chart ! - Copyright ORBIFLY December 2007 - Disclaimer

ORBIFLY MET'MAP TEAM :

Programming & Development : Alexandra Zaïnal
Concept & Development : Baudouin d'Aumeries
Co-Development & Prog : Marc-Olivier Méhu
Technical & hardware support : Manuel Goepfert

Contact : metmap@orbifly.com




SOURCES & CREDITS :

   NOAA